Weather in Kornilovo

Russia / Altai Krai     53°31′01″N   81°04′16″E
temp.,
°C
wind,
m/s
gust,
m/s
humid.,
%
clouds,
%
prec.,
mm/h
press.,
hPa
HPBL,
m
28 june, tue
tue2801:00+12w512895 0.3 1003376
04:00+10wsw410945 0.0 1005273
07:00+11wsw49915 0.0 1007327
10:00+16wsw676855 0.1 10081184
13:00+17wsw5656100 0.1 10081651
16:00+17w3655100 0.0 10091321
19:00+20sw264892 0.0 10071700
22:00+15ene2269100 0.0 100623
29 june, wed
wed2901:00+14se38735 0.0 1005179
04:00+12sse38860 0.0 1004145
07:00+14sse39755 0.0 1002234
10:00+22sse6105019 0.0 999549
13:00+26s7940100 0.0 9961351
16:00+28sw6933100 0.0 9931637
19:00+27ssw484182 0.0 990649
22:00+12wnw715868 0.4 997603
30 june, thu
thu3001:00+9sw410960 0.4 1000270
04:00+7sw410953 0.0 1000213
07:00+9wsw5118059 0.0 1002592
10:00+14wsw8115398 0.0 10031675
13:00+15wsw794942 0.0 10031566
16:00+18sw67411 0.0 10031788
19:00+18w674434 0.0 10031838
22:00+12wsw34620 0.0 100548
1 july, fri
fri101:00+9wnw34760 0.0 100666
04:00+8wsw33782 0.0 100645
07:00+9sw36740 0.0 1007168
10:00+16wsw57540 0.0 10061336
13:00+19w68415 0.0 10061906
16:00+21w8940100 0.0 10052390
19:00+20w694696 0.0 10061774
22:00+16w385976 0.0 1007245
2 july, sat
sat201:00+10nw12884 0.0 100813
04:00+9wsw23895 0.0 100730
07:00+12wsw25812 0.0 1007144
10:00+17w7959100 0.0 10071190
13:00+18w675857 0.3 10071522
16:00+20w675128 1.0 10061805
19:00+20wnw46465 1.0 10041823
22:00+14nne33765 0.0 100429